View from above orbital plane
|
View from above satellite
|
Ground track
|
The orbit data is extracted from the following two-line orbital elements,
1 17296U 87003B 21104.54230599 .00000092 00000-0 82788-5 0 9997
2 17296 82.5298 157.9406 0017583 296.0887 63.8517 14.83328409829165
Epoch (UTC): | 14 April 2021 13:00:55 |
Eccentricity: | 0.0017583 |
inclination: | 82.5298° |
perigee height: | 606 km |
apogee height: | 631 km |
right ascension of ascending node: | 157.9406° |
argument of perigee: | 296.0887° |
revolutions per day: | 14.83328409 |
mean anomaly at epoch: | 63.8517° |
orbit number at epoch: | 82916 |
The dashed part of the orbit path shows where the satellite is in the earth's shadow,
|
|